Probability
2 2 2 4 11 24 34 41 47 48 47 45 42 35 26 18 12 9 7 5 4 2 2 3 3 3 3 2 2 1 0 0 0 0 0 0 0 0 0 0 0 0 0
1 1 1 2 7 16 25 33 40 46 50 52 46 36 27 20 14 10 7 6 4 3 2 3 3 3 2 1 1 0 0 0 0 0 0 0 0 0 0 0 0 0 0
0 0 0 1 2 7 14 22 30 40 51 55 48 36 28 23 17 13 10 7 5 3 3 3 3 3 2 0 0 0 0 0 0 0 0 0 0 0 0 0 0 0 0
0 0 0 0 0 2 7 13 21 31 41 47 43 33 27 23 19 15 12 8 5 3 3 3 3 2 2 1 1 1 1 1 0 0 0 0 0 0 0 0 0 0 0
0 0 0 0 0 0 3 8 14 20 26 31 32 28 23 19 14 10 8 6 3 2 3 3 2 2 2 2 2 2 2 1 0 0 0 0 0 0 0 0 0 0 0
0 0 0 0 0 0 1 5 9 12 15 18 19 19 16 12 7 3 2 1 0 1 1 1 1 1 2 2 2 2 2 1 0 0 0 0 0 0 0 0 0 0 0
0 0 0 0 0 0 0 1 3 7 9 10 11 10 9 6 3 1 1 1 1 0 0 0 0 1 1 1 1 1 1 0 0 0 0 0 0 0 0 0 0 0 0
0 0 0 0 0 0 0 0 1 2 4 5 6 5 3 1 1 1 1 2 1 0 0 0 0 0 0 0 0 0 0 0 0 0 0 0 0 0 0 0 0 0 0
0 0 0 0 0 0 0 0 0 0 1 1 2 2 0 0 0 0 1 1 1 0 0 0 0 0 0 0 0 0 0 0 0 0 0 0 0 0 0 0 0 0 0
0 0 0 0 0 0 0 0 0 0 0 0 0 0 0 0 0 0 0 0 0 0 0 0 0 0 0 0 0 0 0 0 0 0 0 0 0 0 0 0 0 0 0
0 0 0 0 0 0 0 0 0 0 0 0 0 0 0 0 0 0 0 0 0 0 0 0 0 0 0 0 0 0 0 0 0 0 0 0 0 0 0 0 0 0 0
0 0 0 0 0 0 0 0 0 0 0 0 0 0 0 0 0 0 0 0 0 0 0 0 0 0 0 0 0 0 0 0 0 0 0 0 0 0 0 0 0 0 0
0 0 0 0 0 0 0 0 0 0 0 0 0 0 0 0 0 0 0 0 0 0 0 0 0 0 0 0 0 0 0 0 0 0 0 0 0 0 0 0 0 0 0
0 0 0 0 0 0 0 0 0 0 0 0 0 0 0 0 0 0 0 0 0 0 0 0 0 0 0 0 0 0 0 0 0 0 0 0 0 0 0 0 0 0 0
0 0 0 0 0 0 0 0 0 0 0 0 0 0 0 0 0 0 0 0 0 0 0 0 0 0 0 0 0 0 0 0 0 0 0 0 0 0 0 0 0 0 0
0 0 0 0 0 0 0 0 0 0 0 0 0 0 0 0 0 0 0 0 0 0 0 0 0 0 0 0 0 0 0 0 0 0 0 0 0 0 0 0 0 0 0
0 0 0 0 0 0 0 0 0 0 0 0 0 0 0 0 0 0 0 0 0 0 0 0 0 0 0 0 0 0 0 0 0 0 0 0 0 0 0 0 0 0 0
0 0 0 0 0 0 0 0 0 0 0 0 0 0 0 0 0 0 0 0 0 0 0 0 0 0 0 0 0 0 0 0 0 0 0 0 0 0 0 0 0 0 0
0 0 0 0 0 0 0 0 0 0 0 0 0 0 0 0 0 0 0 0 0 0 0 0 0 0 0 0 0 0 0 0 0 0 0 0 0 0 0 0 0 0 0
0 0 0 0 0 0 0 0 0 0 0 0 0 0 0 0 0 0 0 0 0 0 0 0 0 0 0 0 0 0 0 0 0 0 0 0 0 0 0 0 0 0 0
0 0 0 0 0 0 0 0 0 0 0 0 0 0 0 0 0 0 0 0 0 0 0 0 0 0 0 0 0 0 0 0 0 0 0 0 0 0 0 0 0 0 0
0 0 0 0 0 0 0 0 0 0 0 0 0 0 0 0 0 0 0 0 0 0 0 0 0 0 0 0 0 0 0 0 0 0 0 0 0 0 0 0 0 0 0
0 0 0 0 0 0 0 0 0 0 0 0 0 0 0 0 0 0 0 0 0 0 0 0 0 0 0 0 0 0 0 0 0 0 0 0 0 0 0 0 0 0 0
0 0 0 0 0 0 0 0 0 0 0 0 0 0 0 0 0 0 0 0 0 0 0 0 0 0 0 0 0 0 0 0 0 0 0 0 0 0 0 0 0 0 0
0 0 0 0 0 0 0 0 0 0 0 0 0 0 0 0 0 0 0 0 0 0 0 0 0 0 0 0 0 0 0 0 0 0 0 0 0 0 0 0 0 0 0
0 0 0 0 0 0 0 0 0 0 0 0 0 0 0 0 0 0 0 0 0 0 0 0 0 0 0 0 0 0 0 0 0 0 0 0 0 0 0 0 0 0 0
Wind_Speed
7 8 8 6 5 4 5 6 7 7 5 4 4 4 3 3 2 2 3 3 2 2 2 1 1 1 2 2 3 2 3 3 2 2 4 5 7 8 7 5 4 3 2
6 7 8 7 6 6 5 5 6 6 6 4 4 3 3 3 2 2 3 3 2 1 1 0 1 1 1 2 3 2 2 2 2 2 2 4 4 4 4 2 1 1 1
9 9 9 7 7 6 6 4 5 5 5 5 4 3 3 2 2 3 3 3 2 1 1 0 0 1 1 2 2 2 2 3 2 2 3 3 3 3 3 1 0 1 1
7 9 9 9 8 6 5 5 4 4 4 5 5 6 4 3 4 3 3 3 3 2 2 2 1 1 1 2 2 2 2 2 3 3 3 3 3 2 3 3 2 1 1
7 8 9 10 9 7 6 5 5 4 4 4 5 5 4 3 3 3 4 3 3 3 2 2 2 2 1 2 2 3 3 2 2 2 2 3 2 3 3 3 3 2 1
7 7 7 8 8 7 6 5 5 5 4 4 4 4 5 5 5 4 3 2 2 2 3 2 1 1 1 2 2 2 3 3 3 3 2 2 2 2 2 3 2 2 1
4 5 7 8 9 9 7 5 6 5 5 5 5 4 5 5 5 4 3 3 2 2 2 2 2 2 2 2 2 2 3 3 3 3 2 2 2 1 1 2 2 2 1
2 3 4 7 8 9 8 6 6 6 5 5 5 5 5 4 3 4 3 3 2 2 3 2 2 2 2 3 2 2 2 2 2 3 2 1 1 1 1 1 1 2 2
2 2 3 5 8 8 8 7 7 7 6 6 6 6 5 5 5 4 3 3 3 2 2 2 2 2 2 2 2 2 2 2 2 2 2 1 2 2 2 2 1 1 2
2 2 2 4 6 7 6 6 7 7 7 7 6 5 6 5 5 4 4 3 3 3 2 2 2 2 2 2 2 2 2 2 2 2 3 3 2 2 2 2 2 1 1
2 2 2 3 5 6 6 5 6 7 7 7 6 6 5 5 4 3 4 3 3 3 3 2 2 2 2 2 1 1 2 3 3 3 3 4 3 2 3 2 2 2 1
2 2 3 4 5 5 5 5 6 6 6 6 6 6 6 5 4 4 4 3 3 3 3 2 2 3 3 2 2 2 3 3 4 3 3 3 3 3 3 2 3 2 2
2 2 4 5 5 5 5 5 6 6 6 6 6 6 5 5 4 4 4 3 3 3 3 2 3 3 2 2 2 3 4 5 4 4 4 4 4 4 3 3 3 2 2
1 3 4 5 6 6 6 6 6 6 6 6 6 6 5 5 5 5 4 3 3 3 3 3 3 3 2 2 2 3 5 5 5 6 6 6 5 4 4 3 4 3 3
2 3 4 5 6 7 7 7 7 7 7 6 6 6 6 5 5 5 4 3 3 3 3 3 3 2 2 2 2 3 4 5 5 5 5 5 6 7 5 4 4 4 3
4 3 4 6 7 8 8 8 7 7 7 7 6 6 6 6 5 4 4 4 3 3 3 3 3 3 3 5 5 4 4 5 5 4 3 4 4 6 7 8 7 6 4
5 5 4 5 6 8 8 9 8 7 7 7 7 7 7 6 6 5 5 4 3 3 3 3 3 5 5 6 6 6 5 5 4 3 2 2 3 4 2 3 5 6 7
6 6 4 4 4 6 8 8 9 9 8 7 7 8 7 7 6 6 5 4 3 3 3 3 4 5 5 7 6 7 5 4 3 2 2 2 2 2 2 2 2 2 2
6 6 5 3 3 5 8 9 9 8 8 8 8 8 8 7 7 6 6 4 4 3 3 3 4 4 4 6 6 6 3 3 2 2 1 1 1 2 2 1 1 1 0
6 5 5 2 0 3 7 8 8 8 8 8 8 7 7 8 7 7 5 4 4 4 4 3 3 3 3 6 6 5 2 2 2 2 2 2 2 0 1 1 1 1 1
6 5 4 2 1 3 6 6 7 7 7 7 7 7 7 7 7 6 5 6 5 5 4 4 3 3 4 6 7 7 2 2 2 2 2 2 3 2 2 1 1 1 0
6 5 4 3 2 2 4 5 5 6 7 7 7 7 7 6 6 7 6 6 6 6 5 4 4 4 5 7 8 9 7 4 2 2 2 3 5 3 3 2 3 3 2
6 4 3 2 1 1 2 4 5 6 7 7 7 7 7 6 7 7 7 6 6 5 5 4 4 4 4 5 11 11 10 9 4 3 4 5 5 4 3 5 6 3 1
5 4 3 3 2 2 3 3 5 7 8 8 7 7 7 7 6 6 6 6 6 6 5 5 5 4 4 4 4 4 5 8 5 3 5 7 7 6 6 5 4 3 3
5 4 3 4 3 3 3 3 5 7 7 7 7 7 6 7 6 6 6 6 6 7 7 5 5 5 5 7 11 7 5 4 5 4 2 2 2 3 3 3 4 4 3
6 5 4 4 3 3 4 4 5 7 7 7 7 6 5 5 5 5 4 9 8 11 12 9 7 6 7 7 10 12 12 12 10 6 3 4 4 4 4 4 4 3 4
Wind_Direction
190 155 148 150 155 158 162 165 166 173 165 165 169 167 171 170 162 148 136 136 141 150 160 192 235 247 245 250 256 257 260 257 250 275 287 271 253 247 244 234 231 245 242
189 159 152 157 163 165 170 170 170 171 171 167 164 154 147 149 146 143 128 114 107 103 122 174 256 262 263 273 273 272 267 261 232 223 283 300 303 277 249 223 202 248 11
187 171 166 166 164 165 171 174 171 165 161 150 132 113 105 109 135 154 142 122 108 91 88 73 324 311 287 276 282 284 272 269 266 220 220 254 272 327 326 313 108 37 18
192 175 171 167 167 161 150 152 157 153 150 147 150 155 161 170 171 153 137 126 110 87 59 37 16 342 329 303 292 298 292 278 274 275 244 233 240 267 301 319 324 336 326
200 181 172 165 159 150 149 151 152 151 147 148 155 164 163 150 125 120 131 134 124 110 84 42 17 357 346 333 330 324 311 289 270 266 273 275 270 240 239 272 291 304 301
192 178 164 150 142 138 143 153 156 157 152 151 150 156 150 136 132 139 142 131 123 122 111 73 26 6 1 349 337 325 315 302 290 282 268 253 254 254 245 250 262 273 295
178 170 161 154 149 149 155 165 162 160 156 152 146 135 125 123 134 135 129 121 118 111 97 76 32 17 11 354 334 319 308 308 304 296 291 283 275 283 268 261 266 266 275
152 156 156 154 154 156 159 170 170 161 156 146 130 114 106 104 102 94 92 90 90 87 77 66 43 33 18 356 342 319 311 327 323 318 318 315 347 348 331 292 271 270 268
108 137 149 153 153 159 167 173 165 154 147 135 121 114 110 103 101 96 91 88 87 88 72 66 55 49 30 1 349 350 354 357 9 354 356 12 23 23 11 359 339 235 250
79 97 123 148 149 153 161 165 158 151 142 132 126 121 113 105 105 106 105 100 92 83 76 70 62 58 43 17 23 21 5 46 48 26 42 46 39 35 21 9 7 9 242
91 119 127 129 133 138 150 155 150 140 137 132 126 123 116 114 116 116 110 105 100 89 75 69 64 57 43 28 51 57 45 74 67 53 63 58 49 47 28 20 27 31 26
102 122 132 130 135 148 155 153 142 138 139 133 131 127 120 121 123 118 108 100 97 89 79 70 75 70 52 31 50 72 64 74 75 67 69 62 65 61 43 39 42 36 28
142 148 153 157 160 164 164 156 147 144 136 131 130 126 129 133 131 119 109 104 102 101 94 84 84 79 67 53 57 82 84 76 70 63 63 52 58 57 45 47 41 27 29
202 185 179 176 172 173 171 162 155 147 143 142 141 141 142 137 126 115 110 107 107 112 105 94 90 89 85 78 74 90 95 88 77 67 61 54 56 53 43 48 30 24 35
288 229 200 189 181 178 174 166 159 153 149 148 148 144 132 121 116 118 117 109 105 105 105 108 109 104 98 86 85 94 107 105 93 80 73 65 66 64 60 59 37 34 44
296 267 222 199 189 182 176 166 162 157 152 154 153 141 133 132 135 137 133 127 121 116 122 126 123 110 100 101 93 100 97 100 101 96 87 84 64 65 64 66 60 56 59
309 288 249 219 200 185 174 170 165 155 157 159 154 148 147 149 152 150 143 144 145 137 134 131 120 111 114 118 107 101 100 98 99 101 96 96 88 63 47 59 65 58 56
316 301 276 241 209 182 168 160 154 156 161 161 157 155 155 155 154 151 153 151 144 144 140 129 119 120 127 125 120 114 105 109 114 113 112 109 108 83 64 58 54 57 67
317 307 293 268 210 174 159 150 153 158 164 168 165 162 159 158 159 161 159 149 143 140 135 127 125 129 139 144 141 132 127 136 154 168 154 114 111 99 71 49 346 327 212
326 323 319 321 127 145 141 148 159 165 176 172 163 157 157 160 164 163 156 146 146 148 143 139 138 143 161 175 175 166 158 168 188 197 193 171 153 148 19 15 350 6 18
328 336 340 353 42 128 139 157 166 178 170 154 150 151 155 158 157 154 153 150 151 156 162 165 178 186 200 201 197 196 184 191 191 187 193 195 190 227 277 283 268 247 318
337 347 350 351 24 114 147 166 176 163 147 147 149 152 153 157 157 155 158 161 163 169 178 186 199 208 210 211 212 213 214 210 189 197 194 192 195 225 258 262 259 273 300
330 334 333 323 329 171 171 181 173 151 146 149 154 156 158 160 161 166 169 172 178 183 188 193 203 208 201 211 219 221 222 225 211 202 209 208 218 236 258 258 255 261 257
322 323 319 302 266 213 201 189 163 155 156 162 164 165 168 169 172 176 178 182 186 190 193 199 205 206 203 201 204 212 226 229 229 223 233 238 242 241 244 254 254 231 224
314 310 296 286 275 226 205 183 166 161 167 170 170 172 176 176 181 187 192 192 197 196 195 200 196 197 211 215 205 193 199 196 205 194 195 205 220 226 230 230 227 221 226
309 306 296 285 274 242 213 192 178 172 175 179 179 178 179 181 183 186 201 213 210 217 217 209 203 212 217 218 215 213 213 213 215 208 204 218 221 224 225 225 222 218 219